DW4267 Weather Reports


time (UTC)temp
C
wind
direction
speed
KPH
gust
KPH
rain 1hr
cm
rain 24hr
cm
rain mn
cm
humidity
%
barometer
mb
20260507143441 21 58 0.0 0.0 0.00 0.00 0.00 32 1012.1
20260507143157 21 41 0.0 0.0 0.00 0.00 0.00 33 1012.0
20260507142424 20 41 0.0 0.0 0.00 0.00 0.00 33 1012.0
20260507141920 20 44 0.0 0.0 0.00 0.00 0.00 34 1011.9
20260507141633 19 128 0.0 0.0 0.00 0.00 0.00 35 1011.8
20260507140908 18 128 0.0 0.0 0.00 0.00 0.00 36 1011.8
20260507140342 18 128 0.0 0.0 0.00 0.00 0.00 34 1011.7
20260507135824 18 128 0.0 0.0 0.00 0.00 0.00 36 1011.6
20260507135316 18 198 0.0 0.0 0.00 0.00 0.00 35 1011.6
20260507134819 18 173 0.0 0.0 0.00 0.00 0.00 36 1011.6
20260507134306 18 173 0.0 0.0 0.00 0.00 0.00 34 1011.4
20260507133803 18 173 0.0 0.0 0.00 0.00 0.00 35 1011.4
20260507133300 18 173 0.0 3.2 0.00 0.00 0.00 33 1011.3
20260507133019 18 165 0.0 3.2 0.00 0.00 0.00 33 1011.4
20260507132551 19 5 0.0 1.6 0.00 0.00 0.00 31 1011.4
20260507132426 19 355 0.0 3.2 0.00 0.00 0.00 32 1011.4
20260507132420 19 5 0.0 3.2 0.00 0.00 0.00 31 1011.4
20260507131004 19 90 1.6 4.8 0.00 0.00 0.00 30 1011.4
20260507130427 20 163 1.6 4.8 0.00 0.00 0.00 30 1011.4
20260507125657 20 265 1.6 3.2 0.00 0.00 0.00 29 1011.4
20260507125158 20 325 1.6 4.8 0.00 0.00 0.00 29 1011.4
20260507124929 20 268 1.6 4.8 0.00 0.00 0.00 29 1011.4
20260507124146 20 65 3.2 11.3 0.00 0.00 0.00 29 1011.4
20260507123633 20 75 6.4 16.1 0.00 0.00 0.00 28 1011.3
20260507123128 19 67 4.8 16.1 0.00 0.00 0.00 28 1011.3
20260507122855 19 70 3.2 11.3 0.00 0.00 0.00 29 1011.3
20260507122127 19 78 1.6 8.0 0.00 0.00 0.00 28 1011.3
20260507121623 19 70 0.0 3.2 0.00 0.00 0.00 30 1011.2
20260507121341 19 244 0.0 3.2 0.00 0.00 0.00 31 1011.2
20260507121333 20 78 1.6 3.2 0.00 0.00 0.00 29 1011.3
20260507121329 19 165 0.0 3.2 0.00 0.00 0.00 29 1011.2
20260507121321 20 78 1.6 3.2 0.00 0.00 0.00 28 1011.3
20260507121316 20 78 0.0 3.2 0.00 0.00 0.00 28 1011.1
20260507114616 20 180 0.0 6.4 0.00 0.00 0.00 28 1011.3
20260507114110 20 186 0.0 6.4 0.00 0.00 0.00 27 1011.3
20260507113607 20 304 0.0 3.2 0.00 0.00 0.00 26 1011.3
20260507113106 20 207 1.6 3.2 0.00 0.00 0.00 28 1011.3
20260507112555 20 207 1.6 3.2 0.00 0.00 0.00 27 1011.4
20260507112320 20 50 0.0 3.2 0.00 0.00 0.00 27 1011.4
20260507111551 20 14 0.0 1.6 0.00 0.00 0.00 26 1011.4
20260507111257 20 14 0.0 1.6 0.00 0.00 0.00 26 1011.4
20260507110527 21 14 0.0 3.2 0.00 0.00 0.00 26 1011.5
20260507110023 21 14 0.0 3.2 0.00 0.00 0.00 26 1011.4
20260507105732 21 293 0.0 1.6 0.00 0.00 0.00 25 1011.5
20260507104930 21 293 0.0 4.8 0.00 0.00 0.00 25 1011.5
20260507104423 21 292 0.0 4.8 0.00 0.00 0.00 25 1011.5
20260507103921 21 108 0.0 3.2 0.00 0.00 0.00 25 1011.5
20260507103420 21 142 0.0 3.2 0.00 0.00 0.00 25 1011.7
20260507102919 21 164 0.0 3.2 0.00 0.00 0.00 24 1011.7
20260507102637 21 164 0.0 1.6 0.00 0.00 0.00 24 1011.8
20260507101912 21 164 0.0 3.2 0.00 0.00 0.00 24 1011.9
20260507101351 21 164 0.0 3.2 0.00 0.00 0.00 24 1012.0
20260507100850 22 153 0.0 1.6 0.00 0.00 0.00 24 1012.1
20260507100346 22 153 0.0 3.2 0.00 0.00 0.00 24 1012.1
20260507095823 22 177 0.0 3.2 0.00 0.00 0.00 23 1012.1
20260507095320 22 194 0.0 4.8 0.00 0.00 0.00 23 1012.3
20260507094753 22 239 1.6 4.8 0.00 0.00 0.00 23 1012.3
20260507094246 22 202 1.6 4.8 0.00 0.00 0.00 23 1012.3
20260507093737 22 173 0.0 4.8 0.00 0.00 0.00 23 1012.3
20260507093230 22 271 0.0 3.2 0.00 0.00 0.00 23 1012.3
20260507092719 22 305 0.0 3.2 0.00 0.00 0.00 23 1012.4
20260507092212 22 305 0.0 3.2 0.00 0.00 0.00 23 1012.4
20260507091708 22 158 0.0 4.8 0.00 0.00 0.00 22 1012.5
20260507091202 22 205 1.6 6.4 0.00 0.00 0.00 23 1012.4
20260507090656 22 227 1.6 6.4 0.00 0.00 0.00 22 1012.4
20260507090146 22 215 1.6 4.8 0.00 0.00 0.00 23 1012.4
20260507085640 22 250 1.6 4.8 0.00 0.00 0.00 23 1012.3
20260507085133 22 296 1.6 4.8 0.00 0.00 0.00 23 1012.4
20260507084626 22 236 1.6 4.8 0.00 0.00 0.00 23 1012.3
20260507084121 22 281 1.6 8.0 0.00 0.00 0.00 23 1012.3
20260507083615 22 268 1.6 8.0 0.00 0.00 0.00 24 1012.3
20260507083335 22 222 1.6 6.4 0.00 0.00 0.00 24 1012.4
20260507082559 21 339 0.0 3.2 0.00 0.00 0.00 24 1012.3
20260507082103 21 351 0.0 3.2 0.00 0.00 0.00 24 1012.4
20260507081548 21 39 0.0 3.2 0.00 0.00 0.00 24 1012.5
20260507081024 22 9 0.0 1.6 0.00 0.00 0.00 25 1012.5
20260507080521 22 9 0.0 1.6 0.00 0.00 0.00 25 1012.6
20260507080242 22 5 0.0 1.6 0.00 0.00 0.00 25 1012.7
20260507075518 22 5 1.6 4.8 0.00 0.00 0.00 25 1012.7
20260507075239 22 5 1.6 4.8 0.00 0.00 0.00 26 1012.7
20260507074516 22 322 0.0 4.8 0.00 0.00 0.00 26 1012.7
20260507074240 22 144 0.0 1.6 0.00 0.00 0.00 24 1012.9
20260507073509 22 144 0.0 1.6 0.00 0.00 0.00 25 1012.9
20260507073000 22 153 0.0 1.6 0.00 0.00 0.00 24 1012.9
20260507072504 23 153 0.0 3.2 0.00 0.00 0.00 24 1012.9
20260507071948 23 153 0.0 3.2 0.00 0.00 0.00 23 1012.8
20260507071434 23 105 0.0 1.6 0.00 0.00 0.00 23 1012.9
20260507071140 23 105 0.0 1.6 0.00 0.00 0.00 23 1012.9
20260507070417 23 105 0.0 3.2 0.00 0.00 0.00 22 1012.9
20260507065916 23 105 0.0 4.8 0.00 0.00 0.00 22 1013.0
20260507065615 23 22 1.6 4.8 0.00 0.00 0.00 23 1012.9
20260507065258 23 341 3.2 9.7 0.00 0.00 0.00 22 1012.8
20260507064918 23 34 1.6 8.0 0.00 0.00 0.00 22 1012.9
20260507063822 23 320 1.6 9.7 0.00 0.00 0.00 22 1012.9
20260507063319 23 299 0.0 8.0 0.00 0.00 0.00 22 1012.9
20260507062836 23 342 0.0 4.8 0.00 0.00 0.00 22 1012.8
20260507062319 23 336 1.6 4.8 0.00 0.00 0.00 22 1012.8
20260507061819 23 13 0.0 4.8 0.00 0.00 0.00 22 1012.8
20260507061546 23 23 0.0 0.0 0.00 0.00 0.00 22 1012.8
20260507060816 23 35 0.0 0.0 0.00 0.00 0.00 22 1012.8
20260507060256 23 5 0.0 0.0 0.00 0.00 0.00 22 1012.9
20260507055723 23 15 0.0 3.2 0.00 0.00 0.00 22 1012.9
20260507055224 23 340 0.0 3.2 0.00 0.00 0.00 22 1012.9
20260507054710 23 19 0.0 0.0 0.00 0.00 0.00 22 1012.9
20260507054209 23 349 0.0 0.0 0.00 0.00 0.00 22 1012.9
20260507053656 23 345 0.0 0.0 0.00 0.00 0.00 22 1012.9
20260507053156 23 14 0.0 4.8 0.00 0.00 0.00 22 1012.9
20260507052859 23 332 0.0 4.8 0.00 0.00 0.00 22 1012.8
20260507052141 23 345 0.0 0.0 0.00 0.00 0.00 22 1012.9
20260507051641 23 355 0.0 0.0 0.00 0.00 0.00 23 1012.9
20260507051141 23 333 0.0 0.0 0.00 0.00 0.00 23 1012.9
20260507050626 23 315 0.0 0.0 0.00 0.00 0.00 24 1012.8
20260507050119 23 315 0.0 0.0 0.00 0.00 0.00 23 1012.9
20260507045618 23 312 0.0 0.0 0.00 0.00 0.00 24 1012.8
20260507045116 23 292 0.0 0.0 0.00 0.00 0.00 23 1012.8
20260507044610 23 294 0.0 0.0 0.00 0.00 0.00 23 1012.8
20260507044104 23 341 0.0 0.0 0.00 0.00 0.00 23 1012.8
20260507043537 23 341 0.0 0.0 0.00 0.00 0.00 23 1012.8
20260507043029 24 341 0.0 0.0 0.00 0.00 0.00 23 1012.7
20260507042525 24 334 0.0 0.0 0.00 0.00 0.00 23 1012.7
20260507042022 24 334 0.0 0.0 0.00 0.00 0.00 23 1012.7
20260507041518 24 334 0.0 0.0 0.00 0.00 0.00 23 1012.6
20260507041235 24 334 0.0 0.0 0.00 0.00 0.00 23 1012.6
20260507040513 24 340 0.0 0.0 0.00 0.00 0.00 22 1012.6
20260507040203 25 340 0.0 0.0 0.00 0.00 0.00 23 1012.6
20260507035435 25 340 0.0 0.0 0.00 0.00 0.00 22 1012.5
20260507034923 25 330 0.0 0.0 0.00 0.00 0.00 22 1012.6
20260507034421 25 330 0.0 0.0 0.00 0.00 0.00 22 1012.5
20260507033918 25 330 0.0 0.0 0.00 0.00 0.00 22 1012.5
20260507033420 25 330 0.0 0.0 0.00 0.00 0.00 22 1012.4
20260507032841 25 330 0.0 0.0 0.00 0.00 0.00 22 1012.3
20260507032328 25 330 0.0 0.0 0.00 0.00 0.00 22 1012.3
20260507031820 25 330 0.0 0.0 0.00 0.00 0.00 21 1012.3
20260507031253 26 332 0.0 0.0 0.00 0.00 0.00 21 1012.3
20260507030749 26 331 0.0 0.0 0.00 0.00 0.00 21 1012.1
20260507030232 26 332 0.0 0.0 0.00 0.00 0.00 21 1011.9
20260507025727 26 334 0.0 0.0 0.00 0.00 0.00 20 1011.9
20260507025226 26 323 0.0 0.0 0.00 0.00 0.00 20 1012.0
20260507024722 26 323 0.0 0.0 0.00 0.00 0.00 20 1012.0
20260507024224 26 321 0.0 0.0 0.00 0.00 0.00 20 1011.9
20260507023939 26 347 0.0 0.0 0.00 0.00 0.00 20 1011.8
20260507023218 26 337 0.0 0.0 0.00 0.00 0.00 20 1011.8
20260507022719 26 324 0.0 0.0 0.00 0.00 0.00 20 1011.7
20260507022208 26 347 1.6 4.8 0.00 0.00 0.00 19 1011.8
20260507021657 27 329 1.6 6.4 0.00 0.00 0.00 19 1011.8
20260507021353 27 304 1.6 6.4 0.00 0.00 0.00 19 1011.7
20260507020632 27 336 1.6 6.4 0.00 0.00 0.00 19 1011.7
20260507020129 27 297 1.6 4.8 0.00 0.00 0.00 19 1011.7
20260507015626 27 338 1.6 4.8 0.00 0.00 0.00 18 1011.7
20260507015128 27 355 3.2 8.0 0.00 0.00 0.00 18 1011.7
20260507014625 28 314 3.2 8.0 0.00 0.00 0.00 18 1011.7
20260507014125 28 294 1.6 6.4 0.00 0.00 0.00 18 1011.8
20260507013622 28 281 3.2 6.4 0.00 0.00 0.00 18 1011.7
20260507013126 28 242 4.8 9.7 0.00 0.00 0.00 18 1011.8
20260507012623 28 253 4.8 9.7 0.00 0.00 0.00 18 1011.7
20260507012132 28 243 4.8 9.7 0.00 0.00 0.00 17 1011.8
20260507011620 28 210 3.2 11.3 0.00 0.00 0.00 17 1011.8
20260507011121 28 291 1.6 11.3 0.00 0.00 0.00 17 1011.8
20260507010619 28 343 1.6 6.4 0.00 0.00 0.00 17 1011.8
20260507010123 28 269 3.2 8.0 0.00 0.00 0.00 17 1011.8
20260507005617 28 322 3.2 9.7 0.00 0.00 0.00 17 1011.8
20260507005111 28 355 3.2 9.7 0.00 0.00 0.00 17 1011.9
20260507004604 28 293 3.2 6.4 0.00 0.00 0.00 17 1011.8
20260507004055 29 283 1.6 8.0 0.00 0.00 0.00 17 1011.8
20260507003544 29 30 3.2 8.0 0.00 0.00 0.00 17 1011.8
20260507003039 28 229 3.2 11.3 0.00 0.00 0.00 17 1011.8
20260507002531 29 339 4.8 12.9 0.00 0.00 0.00 17 1011.8
20260507002026 29 263 4.8 8.0 0.00 0.00 0.00 17 1011.8
20260507001727 29 274 3.2 8.0 0.00 0.00 0.00 16 1011.9
20260507001612 29 26 4.8 8.0 0.00 0.00 0.00 16 1011.9
20260507000505 29 222 3.2 9.7 0.00 0.00 0.00 16 1012.0
20260506235956 29 274 3.2 11.3 0.00 0.00 0.00 16 1012.0
20260506235452 29 228 3.2 11.3 0.00 0.00 0.00 17 1011.9
20260506234946 29 184 3.2 9.7 0.00 0.00 0.00 16 1011.8
20260506234437 29 191 4.8 9.7 0.00 0.00 0.00 16 1011.9
20260506233924 29 247 3.2 9.7 0.00 0.00 0.00 16 1012.0
20260506233642 29 117 3.2 8.0 0.00 0.00 0.00 16 1012.0
20260506232916 29 237 4.8 9.7 0.00 0.00 0.00 16 1012.1
20260506232412 29 334 4.8 14.5 0.00 0.00 0.00 16 1012.3
20260506231905 29 248 4.8 14.5 0.00 0.00 0.00 16 1012.3
20260506231359 29 105 3.2 9.7 0.00 0.00 0.00 17 1012.3
20260506230851 29 124 3.2 6.4 0.00 0.00 0.00 16 1012.4
20260506230346 29 56 1.6 8.0 0.00 0.00 0.00 16 1012.5
20260506225837 29 67 1.6 8.0 0.00 0.00 0.00 15 1012.7
20260506225332 29 162 3.2 8.0 0.00 0.00 0.00 16 1012.6
20260506224824 29 84 3.2 8.0 0.00 0.00 0.00 15 1012.7
20260506224319 29 217 3.2 9.7 0.00 0.00 0.00 16 1012.7
20260506223812 29 285 4.8 9.7 0.00 0.00 0.00 16 1012.8
20260506223303 29 295 3.2 9.7 0.00 0.00 0.00 17 1012.9
20260506222758 29 292 3.2 8.0 0.00 0.00 0.00 17 1012.9
20260506222307 28 345 3.2 14.5 0.00 0.00 0.00 17 1012.8
20260506221753 28 336 6.4 17.7 0.00 0.00 0.00 17 1012.9
20260506221253 28 55 4.8 17.7 0.00 0.00 0.00 17 1012.9
20260506220751 28 11 4.8 8.0 0.00 0.00 0.00 17 1013.0
20260506220249 28 144 4.8 12.9 0.00 0.00 0.00 17 1013.1
20260506215739 28 347 6.4 16.1 0.00 0.00 0.00 17 1013.2
20260506215242 28 279 6.4 16.1 0.00 0.00 0.00 17 1013.2
20260506214959 28 209 4.8 12.9 0.00 0.00 0.00 18 1013.2
20260506214232 28 225 4.8 11.3 0.00 0.00 0.00 18 1013.4
20260506213730 28 72 4.8 11.3 0.00 0.00 0.00 18 1013.5
20260506213227 28 284 4.8 14.5 0.00 0.00 0.00 18 1013.5
20260506213000 28 257 6.4 14.5 0.00 0.00 0.00 18 1013.5
20260506212228 28 233 4.8 11.3 0.00 0.00 0.00 18 1013.6
20260506211949 28 284 4.8 12.9 0.00 0.00 0.00 18 1013.6
20260506211224 28 173 4.8 12.9 0.00 0.00 0.00 18 1013.8
20260506210723 28 279 4.8 12.9 0.00 0.00 0.00 19 1013.9
20260506210439 28 5 4.8 11.3 0.00 0.00 0.00 19 1013.9
20260506205724 28 355 6.4 16.1 0.00 0.00 0.00 19 1014.0
20260506205217 28 331 6.4 16.1 0.00 0.00 0.00 19 1014.0
20260506205205 28 279 6.4 12.9 0.00 0.00 0.00 19 1014.0
20260506204430 28 309 6.4 12.9 0.00 0.00 0.00 18 1014.2
20260506203715 28 275 4.8 12.9 0.00 0.00 0.00 18 1014.2
20260506203434 28 345 3.2 8.0 0.00 0.00 0.00 18 1014.2
20260506202711 28 333 3.2 11.3 0.00 0.00 0.00 18 1014.3
20260506202424 28 236 3.2 11.3 0.00 0.00 0.00 18 1014.3
20260506201707 27 73 3.2 9.7 0.00 0.00 0.00 19 1014.3
20260506201422 27 306 3.2 9.7 0.00 0.00 0.00 19 1014.4
20260506200703 27 282 4.8 11.3 0.00 0.00 0.00 20 1014.3
20260506200207 27 285 4.8 12.9 0.00 0.00 0.00 20 1014.4
20260506195709 27 292 3.2 12.9 0.00 0.00 0.00 19 1014.5
20260506195148 27 178 3.2 8.0 0.00 0.00 0.00 20 1014.4
20260506194857 26 295 4.8 12.9 0.00 0.00 0.00 20 1014.4
20260506194130 27 259 4.8 12.9 0.00 0.00 0.00 20 1014.5
20260506193629 27 274 4.8 8.0 0.00 0.00 0.00 19 1014.6
20260506193352 26 290 4.8 11.3 0.00 0.00 0.00 20 1014.5
20260506192624 26 288 6.4 12.9 0.00 0.00 0.00 21 1014.8
20260506192351 26 332 4.8 12.9 0.00 0.00 0.00 21 1014.8
20260506191907 26 59 4.8 9.7 0.00 0.00 0.00 21 1014.9
20260506191625 27 334 3.2 9.7 0.00 0.00 0.00 21 1014.8
20260506190851 26 296 4.8 11.3 0.00 0.00 0.00 21 1014.9
20260506190123 26 315 4.8 11.3 0.00 0.00 0.00 21 1015.0
20260506185613 26 246 4.8 12.9 0.00 0.00 0.00 21 1015.0
20260506185058 27 126 4.8 12.9 0.00 0.00 0.00 20 1015.1
20260506184552 27 171 4.8 11.3 0.00 0.00 0.00 21 1015.3
20260506184051 27 177 3.2 9.7 0.00 0.00 0.00 21 1015.5
20260506183550 27 338 3.2 11.3 0.00 0.00 0.00 21 1015.4
20260506183311 26 248 3.2 11.3 0.00 0.00 0.00 22 1015.5
20260506182550 26 11 4.8 16.1 0.00 0.00 0.00 22 1015.5
20260506182041 27 14 3.2 16.1 0.00 0.00 0.00 22 1015.6
20260506181540 27 5 3.2 6.4 0.00 0.00 0.00 22 1015.6
20260506181037 26 326 1.6 6.4 0.00 0.00 0.00 22 1015.6
20260506180805 26 133 1.6 6.4 0.00 0.00 0.00 23 1015.6
20260506180029 26 350 3.2 6.4 0.00 0.00 0.00 23 1015.6
20260506175515 26 337 3.2 8.0 0.00 0.00 0.00 23 1015.5
20260506175014 26 312 3.2 8.0 0.00 0.00 0.00 23 1015.6
20260506174741 26 281 3.2 8.0 0.00 0.00 0.00 25 1015.6
20260506174008 26 314 3.2 8.0 0.00 0.00 0.00 25 1015.6
20260506173507 26 255 3.2 8.0 0.00 0.00 0.00 24 1015.5
20260506173005 26 65 3.2 8.0 0.00 0.00 0.00 24 1015.6
20260506172507 26 5 4.8 9.7 0.00 0.00 0.00 25 1015.6
20260506172019 25 136 3.2 8.0 0.00 0.00 0.00 25 1015.5
20260506172009 26 67 3.2 9.7 0.00 0.00 0.00 25 1015.5
20260506171000 25 263 1.6 8.0 0.00 0.00 0.00 26 1015.4
20260506170444 25 237 1.6 4.8 0.00 0.00 0.00 26 1015.4
20260506165942 24 252 1.6 6.4 0.00 0.00 0.00 27 1015.4
20260506165438 24 278 3.2 9.7 0.00 0.00 0.00 26 1015.4
20260506164939 24 214 3.2 9.7 0.00 0.00 0.00 27 1015.4
20260506164435 24 121 1.6 9.7 0.00 0.00 0.00 27 1015.5
20260506163932 24 294 1.6 6.4 0.00 0.00 0.00 27 1015.3
20260506163424 23 346 3.2 8.0 0.00 0.00 0.00 28 1015.3
20260506162920 23 198 3.2 8.0 0.00 0.00 0.00 29 1015.2
20260506162414 23 286 3.2 8.0 0.00 0.00 0.00 29 1015.3
20260506161905 23 120 1.6 6.4 0.00 0.00 0.00 29 1015.2
20260506161400 23 100 1.6 8.0 0.00 0.00 0.00 29 1015.1
20260506160851 23 70 1.6 8.0 0.00 0.00 0.00 30 1015.0
20260506160607 22 268 1.6 8.0 0.00 0.00 0.00 31 1015.1
20260506155839 22 223 3.2 9.7 0.00 0.00 0.00 31 1015.1
20260506155557 22 128 4.8 9.7 0.00 0.00 0.00 31 1015.0
20260506154825 22 171 3.2 8.0 0.00 0.00 0.00 31 1014.9
20260506154319 22 132 3.2 9.7 0.00 0.00 0.00 32 1015.0
20260506153815 22 186 3.2 9.7 0.00 0.00 0.00 31 1015.0
20260506153311 22 155 3.2 8.0 0.00 0.00 0.00 31 1015.0
20260506152806 22 113 3.2 11.3 0.00 0.00 0.00 32 1014.9
20260506152259 22 150 3.2 11.3 0.00 0.00 0.00 32 1014.9
20260506151757 22 70 1.6 8.0 0.00 0.00 0.00 32 1015.0
20260506151521 21 132 1.6 8.0 0.00 0.00 0.00 32 1014.8
20260506150755 21 93 1.6 6.4 0.00 0.00 0.00 33 1014.9
20260506150237 21 143 0.0 3.2 0.00 0.00 0.00 33 1014.8
20260506145738 21 171 0.0 3.2 0.00 0.00 0.00 35 1014.6
20260506145221 20 153 0.0 3.2 0.00 0.00 0.00 36 1014.4
20260506144705 20 152 0.0 1.6 0.00 0.00 0.00 37 1014.3
20260506144208 19 121 0.0 1.6 0.00 0.00 0.00 40 1014.1
20260506143651 18 87 0.0 1.6 0.00 0.00 0.00 40 1014.0